Tracking 19476 objects as of 16-Jan-2019
HD Live streaming from Space Station
objects crossing your sky now

RADUGA 32

Track RADUGA 32 now!
RADUGA 32 is classified as:


NORAD ID: 23448
Int'l Code: 1994-087A
Perigee: 35,761.9 km
Apogee: 35,826.5 km
Inclination: 14.7 °
Period: 1,436.1 minutes
Semi major axis: 42165 km
RCS: 3.107 m2 (large)
Launch date: December 28, 1994
Source: Commonwealth of Independent States (former USSR) (CIS)
Launch site: TYURATAM MISSILE AND SPACE COMPLEX (TTMTR)
aabbcc
Your satellite tracking list
Your tracking list is empty




NASA's NSSDC Master Catalog

Two Line Element Set (TLE):
1 23448U 94087A   19015.55615837 -.00000056  00000-0  00000+0 0  9996
2 23448  14.7211  13.2261 0007660 245.1627 126.6551  1.00270214105773
Source of the keplerian elements: AFSPC